Location: Green Valley Mobile Estates
(33.0550°N, 117.2650°W)
Time: 23:16:30
(UTC+00:00)

Daily predictions for brighter satellites

Satellite Brightness Start Highest point End
(mag) Time Altitude Azimuth Time Altitude Azimuth Time Altitude Azimuth
SL-08 R/B 4.5 12:00:54 10° N 12:07:05 76° W 12:13:19 10° S
YAOGAN 6 3.1 12:08:16 10° NNE 12:11:51 62° E 12:15:25 10° S
Cosmos 2369 Rocket 3.5 12:11:31 10° WNW 12:15:15 19° W 12:18:59 10° SW
FALCON 9 R/B 4.3 12:08:32 10° W 12:16:55 18° WSW 12:21:14 10° SSW
ATLAS 2A CENTAUR R/B 3.3 12:03:29 10° W 12:17:16 55° S 12:22:25 10° ESE
CZ-4C R/B 3.1 12:14:14 10° S 12:17:47 80° WSW 12:21:31 10° NNW
Cosmos 1110 Rocket 4.3 12:13:05 10° S 12:18:12 71° ESE 12:23:22 10° NNE
Nadezhda 3 Rocket 4.2 12:12:08 10° SSW 12:18:17 54° W 12:24:26 10° N
MINOTAUR 4 R/B 3.9 12:15:20 10° S 12:18:48 79° WSW 12:22:19 10° NNW
Cosmos 1190 Rocket 4.5 12:14:08 10° NNW 12:19:03 40° W 12:23:58 10° S
Cosmos 1869 3.4 12:16:35 10° NNW 12:20:22 52° W 12:24:07 10° S
CZ-4B R/B 3.8 12:15:55 10° NNE 12:21:08 82° ESE 12:26:25 10° S
CZ-3 R/B 3.6 12:00:05 10° W 12:35:49 71° SSW 12:44:10 10° ESE
